Regional Weather Roundup
Issued by NWS

Home | Current Version | Previous Version | Graphics & Text | Print | Product List | Glossary Off
Versions: 1 2 3 4 5 6 7 8 9 10 11 12 13 14 15 16 17 18 19 20 21 22 23 24 25 26 27 28 29 30 31 32 33 34 35 36 37 38 39 40 41 42 43 44 45 46 47 48 49 50

000
ASUS43 KTOP 271459
RWRKS

WEATHER ROUNDUP FOR KANSAS
NATIONAL WEATHER SERVICE GOODLAND KS
1000 AM CDT WED MAY 27 2015

NOTE:  "FAIR" INDICATES FEW OR NO CLOUDS BELOW 12,000 FEET WITH NO
SIGNIFICANT WEATHER AND/OR OBSTRUCTIONS TO VISIBILITY.

KSZ001>006-013>018-027>032-041>047-271600-
NORTHWEST KANSAS

CITY           SKY/WX    TMP DP  RH WIND       PRES   REMARKS
GOODLAND       CLOUDY    57  53  86 SE15      30.09S
HAYS           PTSUNNY   66  52  59 E7        30.09R
HILL CITY      PTSUNNY   66  56  70 SE6       30.09S
RUSSELL        PTSUNNY   72  54  53 E12       30.07R
$$

KSZ061>065-074>080-084>089-271600-
SOUTHWEST KANSAS

CITY           SKY/WX    TMP DP  RH WIND       PRES   REMARKS
DODGE CITY     PTSUNNY   71  58  63 SE5       30.08R
ELKHART          N/A     70  58  66 S12         N/A
GARDEN CITY    CLOUDY    67  60  78 S5        30.08R
GREAT BEND     PTSUNNY   70  55  60 SE12      30.08R
LIBERAL        SUNNY     73  63  68 S12       30.09S
$$

KSZ066>073-081>083-090>101-271600-
SOUTHEAST KANSAS

CITY           SKY/WX    TMP DP  RH WIND       PRES   REMARKS
CHANUTE        MOSUNNY   74  60  61 E9        30.10R
COFFEYVILLE    MOSUNNY   75  64  68 CALM      30.08R
HUTCHINSON     PTSUNNY   74  55  51 E10       30.08R
NEWTON           N/A    N/A N/A N/A MISG        N/A
PARSONS        MOSUNNY   76  66  71 E5        30.10R
WICHITA INTL   PTSUNNY   71  62  73 SE9       30.08R
WICHITA JABRA  PTSUNNY   71  59  65 E10       30.08R
WINFIELD       CLOUDY    73  64  73 SE6       30.10R
$$

KSZ007>012-019>026-033>040-048>060-102>105-271600-
NORTHEAST KANSAS

CITY           SKY/WX    TMP DP  RH WIND       PRES   REMARKS
CONCORDIA      SUNNY     71  53  52 VRB3      30.09S
EMPORIA        MOSUNNY   72  56  57 NE9       30.08S
LAWRENCE       SUNNY     72  58  61 CALM      30.09R
MANHATTAN      SUNNY     70  58  65 NE3       30.08S
OLATHE IND     SUNNY     72  55  55 CALM      30.11R
OLATHE EXE     SUNNY     73  58  59 E3        30.09R
SALINA         MOSUNNY   72  54  53 E9        30.08S
TOPEKA BILLARD SUNNY     73  59  61 N5        30.08S
TOPEKA FORBES  SUNNY     73  54  51 NE5       30.09R
$$


USA.gov is the U.S. government's official web portal to all federal, state and local government web resources and services.